Location: *
(43.9900°N, 3.4811°E)
Time: 05:12:24
(UTC+00:00)

Cosmos 1346 Rocket - Pass Details

Date: 25 August 2019
Orbit: 519 x 560 km, 81.2° (Epoch: 19 September)

Event Time Altitude Azimuth Distance (km) Brightness Sun altitude
Exits shadow 20:47:57 69° 207° (SSW) 560 2.7 -21.8°
Maximum altitude 20:48:22 84° 279° (W) 529 2.6 -21.9°
Drops below altitude 10° 20:52:15 10° 9° (N) 1,767 5.8 -22.4°
Sets 20:54:24 0° 10° (N) 2,664 6.8 -22.7°
